{"data":{"norad_id":61666,"intl_designator":"2024-193F","name":"STARLINK-32428","alt_names":[],"object_type":"PAYLOAD","status":"ACTIVE","operator":null,"country":"US","launch_date":"2024-10-26","launch_site_code":"AFETR","launch_vehicle":null,"mission":null,"orbit_class":"UNKNOWN","rcs_meters":null,"size_class":null,"mass_kg":null,"dimensions":null,"purposes":["comms"],"wikipedia_slug":null,"has_3d_model":false,"image_url":null,"decayed_at":null,"tle_current":{"epoch":"2026-05-25T03:21:03.395232Z","epoch_age_seconds":66498,"freshness":"FRESH","line1":"1 61666U 24193F   26145.13962263 -.00000810  00000+0 -15204-4 0  9990","line2":"2 61666  53.1599  95.7498 0001333  72.1069 288.0077 15.30218169 88235","mean_motion":15.30218169,"eccentricity":0.0001333,"inclination_deg":53.1599,"raan_deg":95.7498,"arg_perigee_deg":72.1069,"mean_anomaly_deg":288.0077,"bstar":-1.5204e-5,"rev_number":8823,"period_min":94.104228349415,"perigee_km":474.2472759976,"apogee_km":476.07436519657,"semimajor_km":6853.2978205971,"source":"CELESTRAK","updated_at":"2026-05-25T13:38:19.412768Z"}}}